Regional Weather Roundup
Issued by NWS Jackson, KY

Home | Current Version | Previous Version | Text Only | Print | Product List | Glossary Off
Versions: 1 2 3 4 5 6 7 8 9 10 11 12 13 14 15 16 17 18 19 20 21 22 23 24 25 26 27 28 29 30 31 32 33 34 35 36 37 38 39 40 41 42 43 44 45 46 47 48 49 50

000
ASUS43 KJKL 270605
RWRJKL

EAST KENTUCKY HOURLY WEATHER ROUNDUP
NATIONAL WEATHER SERVICE JACKSON KY
100 AM EST THU NOV 27 2014

NOTE: "FAIR" INDICATES FEW OR NO CLOUDS BELOW 12,000 FEET WITH
NO SIGNIFICANT WEATHER AND/OR OBSTRUCTIONS TO VISIBILITY.

* THESE REPORTS ARE NOT UNDER NWS QUALITY CONTROL AND MAY NOT
  REPORT WEATHER SUCH AS PRECIPITATION AND FOG.

KYZ079-080-083-085-087-088-110-112-115-119-120-270700
...EASTERN KENTUCKY...

CITY           SKY/WX    TMP DP  RH WIND       PRES   REMARKS
JACKSON        CLOUDY    36  27  69 CALM      29.99F
6HR MIN TEMP:  36; 6HR MAX TEMP:  41;

LONDON         LGT RAIN  36  32  85 N3        30.00F
6HR MIN TEMP:  36; 6HR MAX TEMP:  44; 6HR PCP:  0.02;

SOMERSET*      LGT RAIN  32  32 100 CALM      30.02F
MONTICELLO*    LGT SNOW  35  34  96 CALM      30.03F FOG
6HR MIN TEMP:  35; 6HR MAX TEMP:  43; 6HR PCP:  0.08;

HARLAN APT*    CLOUDY    36  32  87 CALM      29.98F
BLACK MTN*       N/A     28  28 100 SW2         N/A
PIKEVILLE APT* CLOUDY    36  30  80 NW6       29.98S WCI  31
BIG SANDY*     CLOUDY    36  32  86 NE7       29.99S WCI  30
6HR MIN TEMP:  35; 6HR MAX TEMP:  42;

MOREHEAD APT*  CLOUDY    34  28  80 CALM      30.03F
$$

KYZ035-036-041-042-044-050-067-078-099-270700
...CENTRAL KENTUCKY...

CITY           SKY/WX    TMP DP  RH WIND       PRES   REMARKS
MT STERLING*   CLOUDY    32  30  93 NE3       30.03S
FLEMING/MASON* CLOUDY    32  28  86 NE6       30.04F WCI  26
DANVILLE*      CLOUDY    36  30  80 CALM      30.02S
RICHMOND*      CLOUDY    36  30  80 CALM      30.00F
LEXINGTON      CLOUDY    33  29  85 NE7       30.02S WCI  27
6HR MIN TEMP:  32; 6HR MAX TEMP:  39;

FRANKFORT      CLOUDY    34  28  79 N3        30.02S
6HR MIN TEMP:  33; 6HR MAX TEMP:  36;

$$

KYZ091>093-OHZ055-061-077-WVZ005-015-034-035-042-270700
...SOUTHERN OHIO/WEST VIRGINIA...

CITY           SKY/WX    TMP DP  RH WIND       PRES   REMARKS
COVINGTON      CLOUDY    29  22  75 N6        30.05F WCI  23
COLUMBUS       CLOUDY    32  27  81 NW6       30.04F WCI  26
DAYTON         CLOUDY    28  23  81 N7        30.06F WCI  21
WILMINGTON     MOCLDY    28  23  81 N6        30.03F WCI  22
HUNTINGTON     MOCLDY    34  28  79 N3        30.01F
CHARLESTON     CLOUDY    36  34  92 CALM      30.01S FOG
PINEVILLE*     CLOUDY    37  37 100 MISG      30.02F FOG
BECKLEY        MOCLDY    32  30  92 CALM      29.94F FOG
BLUEFIELD      FOG       32  30  92 CALM      29.95S VSB 1/4
$$

VAZ002-007-008-TNZ017-027-036-066-071-270700
...SOUTHWEST VIRGINIA/EAST TENNESSEE...

CITY           SKY/WX    TMP DP  RH WIND       PRES   REMARKS
WISE*          CLOUDY    36  28  75 SW12G17   29.96S WCI  27
JONESVILLE*    CLOUDY    37  34  87 CALM      30.01F
ABINGDON*      CLOUDY    35  35  99 CALM      29.98S FOG
BRISTOL        CLOUDY    40  32  73 W8        29.99F WCI  34
KNOXVILLE      RAIN      40  37  89 SW12      30.00S FOG     WCI  33
OAK RIDGE      RAIN      39  37  92 S3        30.02R FOG
CROSSVILLE     CLOUDY    38  33  82 W21G33    29.99R WCI  28
NASHVILLE      CLOUDY    40  33  76 W17       30.09R WCI  31
$$

...KEY TO REMARKS...
VSB - VISIBILITY IN MILES
WCI - WIND CHILL INDEX
HX  - HEAT INDEX

$$


USA.gov is the U.S. government's official web portal to all federal, state and local government web resources and services.